TimeEDT,TemperatureF,Dew PointF,Humidity,Sea Level PressureIn,VisibilityMPH,Wind Direction,Wind SpeedMPH,Gust SpeedMPH,PrecipitationIn,Events,Conditions,WindDirDegrees,DateUTC
1:52 AM,50.0,30.9,48,29.96,10.0,SW,10.4,20.7,N/A,,Overcast,220,2012-10-12 05:52:00
2:52 AM,50.0,30.0,46,29.93,10.0,SW,12.7,21.9,N/A,,Overcast,230,2012-10-12 06:52:00
3:52 AM,48.9,32.0,52,29.90,10.0,Variable,5.8,19.6,0.00,,Overcast,0,2012-10-12 07:52:00
4:52 AM,50.0,34.0,54,29.91,10.0,WSW,13.8,23.0,0.00,Rain,Light Rain,240,2012-10-12 08:52:00
6:08 AM,42.8,37.4,81,29.95,6.0,West,16.1,20.7,0.01,Rain,Light Rain,260,2012-10-12 10:08:00
6:27 AM,42.8,37.4,81,29.96,10.0,WSW,10.4,-,0.02,Rain,Light Rain,240,2012-10-12 10:27:00
6:52 AM,42.1,36.0,79,29.99,10.0,West,10.4,-,0.02,Rain,Light Rain,260,2012-10-12 10:52:00
7:01 AM,42.8,35.6,76,29.97,10.0,West,9.2,-,0.00,Rain,Light Rain,260,2012-10-12 11:01:00
7:44 AM,41.0,35.6,81,29.99,10.0,WSW,8.1,-,0.02,,Overcast,240,2012-10-12 11:44:00
7:52 AM,41.0,35.1,79,30.02,10.0,WSW,5.8,-,0.02,,Overcast,240,2012-10-12 11:52:00
8:16 AM,41.0,35.6,81,30.00,10.0,WSW,4.6,-,0.00,Rain,Light Rain,240,2012-10-12 12:16:00
8:52 AM,41.0,34.0,76,30.05,10.0,West,9.2,17.3,0.02,,Overcast,260,2012-10-12 12:52:00
9:52 AM,41.0,32.0,70,30.07,10.0,WNW,13.8,-,N/A,,Overcast,290,2012-10-12 13:52:00
10:52 AM,39.9,28.9,65,30.09,10.0,NW,9.2,17.3,N/A,,Overcast,310,2012-10-12 14:52:00
11:52 AM,43.0,28.0,56,30.09,10.0,NW,10.4,16.1,N/A,,Mostly Cloudy,310,2012-10-12 15:52:00
1:52 PM,45.0,28.0,52,30.09,10.0,WNW,15.0,18.4,N/A,,Mostly Cloudy,290,2012-10-12 17:52:00
3:52 PM,43.0,24.1,47,30.15,10.0,NW,18.4,26.5,N/A,,Scattered Clouds,310,2012-10-12 19:52:00
4:52 PM,39.0,26.1,60,30.19,8.0,NW,19.6,25.3,N/A,,Overcast,310,2012-10-12 20:52:00
5:52 PM,36.0,25.0,64,30.23,10.0,NNW,5.8,-,0.00,,Unknown,330,2012-10-12 21:52:00
6:52 PM,35.1,24.1,64,30.27,10.0,WNW,4.6,-,N/A,,Overcast,300,2012-10-12 22:52:00
7:52 PM,35.1,23.0,61,30.30,10.0,WNW,4.6,-,N/A,,Partly Cloudy,290,2012-10-12 23:52:00
8:52 PM,32.0,23.0,69,30.32,10.0,Calm,Calm,-,N/A,,Clear,0,2012-10-13 00:52:00
9:52 PM,32.0,23.0,69,30.33,10.0,Calm,Calm,-,N/A,,Clear,0,2012-10-13 01:52:00
11:52 PM,32.0,24.1,73,30.36,10.0,SW,4.6,-,N/A,,Mostly Cloudy,220,2012-10-13 03:52:00